Weather History for Yuma MCAS, AZ

Change the Weather History Date:

Wednesday, November 24, 2010

  Actual Average Record
Temperature  
Mean Temperature 57 °F 62 °F  
Max Temperature 67 °F 74 °F 89 °F (1950)
Min Temperature 47 °F 51 °F 34 °F (1902)
Degree Days  
Heating Degree Days 8 4  
Month to date heating degree days 41 38  
Since 1 July heating degree days 41 40  
Cooling Degree Days 0 1  
Month to date cooling degree days 98 83  
Year to date cooling degree days 4395 4645  
Growing Degree Days 6 (Base 50)    
Moisture  
Dew Point 35 °F    
Average Humidity 47    
Maximum Humidity 65    
Minimum Humidity 29    
Precipitation  
Precipitation 0.00 in 0.01 in 0.34 in (1978)
Month to date precipitation 0.00 0.15  
Year to date precipitation 4.43 2.98  
Sea Level Pressure  
Sea Level Pressure 29.90 in    
Wind  
Wind Speed 8 mph (West)    
Max Wind Speed 17 mph    
Max Gust Speed 22 mph    
Visibility 10 miles    
Events      
T = Trace of Precipitation, MM = Missing Value Source: NWS Daily Summary

Daily Weather History Graph

Daily Weather History Graph

Search for Another Location

Airport:

Trip Planner

Search our weather history database for the weather conditions in past years. The results will help you decide how hot, cold, wet, or windy it might be!

Date:

Astronomy

Nov. 24, 2010 Rise Set
Actual Time 7:16 AM MST 5:33 PM MST
Civil Twilight 6:49 AM MST 6:00 PM MST
Nautical Twilight 6:19 AM MST 6:30 PM MST
Astronomical Twilight 5:50 AM MST 6:59 PM MST
Moon 8:27 PM MST (11/24) 10:03 AM MST (11/24)
Length of Visible Light 11h 10m
Length of Day
10h 17m
Waning Gibbous, 90% of the Moon is Illuminated
Nov 24
Waning Gibbous
Nov 28
Last Quarter
Dec 5
New
Dec 13
First Quarter
Dec 21
Full

Hourly Weather History & Observations

Time (MST) Temp. Dew Point Humidity Pressure Visibility Wind Dir Wind Speed Gust Speed Precip Events Conditions
12:55 AM 50.0 °F 36.0 °F 59% 29.93 in 10.0 mi SSW 6.9 mph - N/A   Clear
1:55 AM 54.0 °F 37.9 °F 55% 29.92 in 10.0 mi West 10.4 mph - N/A   Clear
2:55 AM 51.1 °F 37.9 °F 61% 29.90 in 10.0 mi SW 6.9 mph - N/A   Clear
3:55 AM 53.1 °F 37.9 °F 57% 29.91 in 10.0 mi SW 4.6 mph - N/A   Clear
4:55 AM 52.0 °F 39.0 °F 61% 29.90 in 10.0 mi West 4.6 mph - N/A   Clear
5:55 AM 50.0 °F 37.0 °F 61% 29.90 in 10.0 mi SSW 5.8 mph - N/A   Clear
6:55 AM 48.9 °F 36.0 °F 61% 29.91 in 10.0 mi SE 8.1 mph - N/A   Clear
7:55 AM 46.9 °F 36.0 °F 66% 29.93 in 10.0 mi SSE 5.8 mph - N/A   Clear
8:55 AM 54.0 °F 36.0 °F 51% 29.94 in 10.0 mi South 9.2 mph - N/A   Clear
9:55 AM 57.9 °F 37.0 °F 46% 29.94 in 10.0 mi SSW 8.1 mph - N/A   Partly Cloudy
10:55 AM 61.0 °F 37.9 °F 42% 29.94 in 10.0 mi West 5.8 mph - N/A   Partly Cloudy
11:55 AM 64.0 °F 39.9 °F 41% 29.92 in 10.0 mi West 8.1 mph - N/A   Partly Cloudy
12:55 PM 64.9 °F 39.0 °F 39% 29.88 in 10.0 mi WSW 8.1 mph - N/A   Partly Cloudy
1:55 PM 66.9 °F 34.0 °F 30% 29.87 in 10.0 mi WNW 16.1 mph 21.9 mph N/A   Partly Cloudy
2:55 PM 66.0 °F 33.1 °F 29% 29.85 in 10.0 mi NW 11.5 mph - N/A   Partly Cloudy
3:55 PM 64.9 °F 32.0 °F 29% 29.84 in 10.0 mi NW 11.5 mph 18.4 mph N/A   Partly Cloudy
4:55 PM 64.0 °F 33.1 °F 31% 29.84 in 10.0 mi NW 10.4 mph - N/A   Partly Cloudy
5:55 PM 61.0 °F 32.0 °F 34% 29.85 in 10.0 mi NW 10.4 mph - N/A   Partly Cloudy
6:55 PM 60.1 °F 32.0 °F 35% 29.86 in 10.0 mi WNW 8.1 mph - N/A   Mostly Cloudy
7:55 PM 57.9 °F 30.9 °F 36% 29.88 in 10.0 mi NW 9.2 mph - N/A   Clear
8:55 PM 55.9 °F 32.0 °F 40% 29.89 in 10.0 mi NW 11.5 mph - N/A   Clear
9:55 PM 54.0 °F 32.0 °F 43% 29.91 in 10.0 mi WNW 8.1 mph - N/A   Clear
10:55 PM 52.0 °F 32.0 °F 47% 29.93 in 10.0 mi NW 5.8 mph - N/A   Clear
11:55 PM 51.1 °F 28.9 °F 43% 29.95 in 10.0 mi NNW 6.9 mph - N/A   Clear